DMSP 5D-2 F13 DEB, 40479

Orbit data source: Space-Track

DMSP 5D-2 F13 DEB, 40479 is space debris in SSO originally from a launch on Fri, 24 Mar 1995 UTC launched from the Air Force Western Test Range (AFWTR). Debris objects in space refer to the collection of defunct objects orbiting the Earth. Examples of debris include non-operational satellites, rocket bodies, and fragments generated from explosions, collisions, or faulty payload assembly.

Loading next visibility...
Identifier
40479, 1995-015BX
Orbit
SSO
Country
Flag of USUS
Related business
Manufacturer
Unknown
Mission
Spacecraft
Bus & Motor
Unknown
Mass
Unknown
Launch date (UTC)
1995-03-24 (31 years ago)
Launch vehicle
Unknown
Launch site
Air Force Western Test Range (AFWTR)
Object type
Payload
Rocket body
Debris
Shape & HBR
Unknown shape, 0.1 m
Radar Cross Section
Small (<0.1 m²)

Expand to show TLE details & history
Last TLE update: 6 days ago

TLE from 6 days ago
0 DMSP 5D-2 F13 DEB
1 40479U 95015BX  25290.83255213  .00001600  00000-0  74675-3 0  9990
2 40479  98.7742 307.3392 0003599  31.5214 328.6178 14.21809229548631
Epoch: 2025-10-17T19:58Z
TLE epoch observation values (Epoch: 2025-10-17T19:58:52.504Z)
Latitude
-0.00003°
Longitude
-18.95182°
Altitude
819.944 km
Speed
7.444 km/s
True Right ascension
20h 29m 21s
True Declination
0° 00' 00"
Sunlit
Object was in daylight at epoch
Visualization orbit readout
Latitude
Unknown
Longitude
Unknown
Altitude
Unknown
Speed
Unknown
Apparent Right ascension
Unknown
Apparent Declination
Unknown
Sunlit
N/A
Visualization observer readout
Local Sidereal Time
16:44:16
Azimuth
Unknown
Elevation
Unknown
Doppler factor
Unknown
Orbital elements
Apogee altitude
818.989 km
Perigee altitude
813.811 km
Semi-major axis
7,194.537 km
Eccentricity
0.00036
Inclination
98.7742°
RAAN
307.3392°
Arg. of periapsis
31.5214°
True anomaly
328.59632°
Mean anomaly
328.6178°
Eccentric anomaly
328.60706°
Mean motion
3.55663 °/min
Orbital period
101.22 mins
BSTAR
0.00074675

Documentation

Showing up to 5 results
|